Time,TemperatureF,DewpointF,PressureIn,WindDirection,WindDirectionDegrees,WindSpeedMPH,WindSpeedGustMPH,Humidity,HourlyPrecipIn,Conditions,Clouds,dailyrainin,SoftwareType,DateUTC
2013-08-20 00:12:00,73.0,65.0,29.91,South,175,7.0,12.0,77,0.00,,,0.00,,2013-08-20 05:12:00,
2013-08-20 00:22:00,73.0,66.0,29.91,South,180,6.0,11.0,78,0.00,,,0.00,,2013-08-20 05:22:00,
2013-08-20 00:42:00,73.0,66.0,29.91,SSW,212,5.0,10.0,78,0.00,,,0.00,,2013-08-20 05:42:00,
2013-08-20 00:52:00,72.0,65.0,29.91,SSW,203,6.0,12.0,78,0.00,,,0.00,,2013-08-20 05:52:00,
2013-08-20 01:11:00,72.0,65.0,29.90,SSE,166,5.0,11.0,79,0.00,,,0.00,,2013-08-20 06:11:00,
2013-08-20 01:21:00,72.0,65.0,29.90,SW,224,6.0,11.0,79,0.00,,,0.00,,2013-08-20 06:21:00,
2013-08-20 01:42:00,72.0,65.0,29.90,SSE,168,5.0,12.0,79,0.00,,,0.00,,2013-08-20 06:42:00,
2013-08-20 01:52:00,72.0,65.0,29.90,SSE,166,5.0,11.0,80,0.00,,,0.00,,2013-08-20 06:52:00,
2013-08-20 02:11:00,72.0,65.0,29.89,South,190,5.0,10.0,80,0.00,,,0.00,,2013-08-20 07:11:00,
2013-08-20 02:22:00,72.0,65.0,29.89,SW,223,4.0,8.0,80,0.00,,,0.00,,2013-08-20 07:22:00,
2013-08-20 02:42:00,72.0,65.0,29.89,South,173,4.0,10.0,80,0.00,,,0.00,,2013-08-20 07:42:00,
2013-08-20 02:52:00,72.0,65.0,29.89,SW,226,4.0,10.0,80,0.00,,,0.00,,2013-08-20 07:52:00,
2013-08-20 03:11:00,72.0,65.0,29.89,South,177,4.0,8.0,80,0.00,,,0.00,,2013-08-20 08:11:00,
2013-08-20 03:21:00,71.0,65.0,29.89,South,183,4.0,10.0,80,0.00,,,0.00,,2013-08-20 08:21:00,
2013-08-20 03:52:00,71.0,65.0,29.88,South,169,6.0,10.0,80,0.00,,,0.00,,2013-08-20 08:52:00,
2013-08-20 04:11:00,71.0,65.0,29.88,South,183,4.0,10.0,82,0.00,,,0.00,,2013-08-20 09:11:00,
2013-08-20 04:21:00,70.0,65.0,29.88,SSW,194,4.0,10.0,83,0.00,,,0.00,,2013-08-20 09:21:00,
2013-08-20 04:42:00,70.0,65.0,29.88,SSE,161,5.0,9.0,84,0.00,,,0.00,,2013-08-20 09:42:00,
2013-08-20 04:53:00,69.0,64.0,29.88,SSE,163,5.0,8.0,85,0.00,,,0.00,,2013-08-20 09:53:00,
2013-08-20 05:12:00,69.0,65.0,29.88,South,176,5.0,9.0,86,0.00,,,0.00,,2013-08-20 10:12:00,
2013-08-20 05:22:00,69.0,65.0,29.88,SSE,163,5.0,8.0,86,0.00,,,0.00,,2013-08-20 10:22:00,
2013-08-20 05:42:00,68.0,64.0,29.88,South,183,6.0,11.0,86,0.00,,,0.00,,2013-08-20 10:42:00,
2013-08-20 05:52:00,69.0,65.0,29.88,SSE,165,6.0,10.0,86,0.00,,,0.00,,2013-08-20 10:52:00,
2013-08-20 06:11:00,68.0,64.0,29.88,South,169,6.0,10.0,87,0.00,,,0.00,,2013-08-20 11:11:00,
2013-08-20 06:22:00,68.0,64.0,29.87,SSW,203,5.0,11.0,87,0.00,,,0.00,,2013-08-20 11:22:00,
2013-08-20 06:42:00,68.0,64.0,29.87,SSW,194,5.0,10.0,87,0.00,,,0.00,,2013-08-20 11:42:00,
2013-08-20 06:52:00,69.0,65.0,29.87,South,184,6.0,12.0,87,0.00,,,0.00,,2013-08-20 11:52:00,
2013-08-20 07:12:00,69.0,65.0,29.88,South,181,4.0,10.0,87,0.00,,,0.00,,2013-08-20 12:12:00,
2013-08-20 07:21:00,69.0,65.0,29.88,SSE,159,3.0,8.0,87,0.00,,,0.00,,2013-08-20 12:21:00,
2013-08-20 07:42:00,69.0,65.0,29.88,SSW,201,4.0,8.0,87,0.00,,,0.00,,2013-08-20 12:42:00,
2013-08-20 07:52:00,70.0,66.0,29.88,SW,228,2.0,8.0,86,0.00,,,0.00,,2013-08-20 12:52:00,
2013-08-20 08:11:00,71.0,66.0,29.88,SSW,198,5.0,9.0,85,0.00,,,0.00,,2013-08-20 13:11:00,
2013-08-20 08:22:00,72.0,67.0,29.88,SSW,208,4.0,10.0,84,0.00,,,0.00,,2013-08-20 13:22:00,
2013-08-20 08:42:00,73.0,67.0,29.88,SSW,194,7.0,11.0,82,0.00,,,0.00,,2013-08-20 13:42:00,
2013-08-20 08:52:00,73.0,67.0,29.89,SSW,210,6.0,12.0,82,0.00,,,0.00,,2013-08-20 13:52:00,
2013-08-20 09:11:00,74.0,67.0,29.88,South,183,7.0,12.0,80,0.00,,,0.00,,2013-08-20 14:11:00,
2013-08-20 09:21:00,75.0,68.0,29.88,SSW,205,6.0,11.0,80,0.00,,,0.00,,2013-08-20 14:21:00,
2013-08-20 09:42:00,76.0,69.0,29.88,SW,226,9.0,15.0,78,0.00,,,0.00,,2013-08-20 14:42:00,
2013-08-20 09:52:00,77.0,70.0,29.89,SSW,195,7.0,13.0,78,0.00,,,0.00,,2013-08-20 14:52:00,
2013-08-20 10:11:00,78.0,71.0,29.88,SSE,162,6.0,14.0,78,0.00,,,0.00,,2013-08-20 15:11:00,
2013-08-20 10:22:00,78.0,70.0,29.88,South,169,8.0,13.0,76,0.00,,,0.00,,2013-08-20 15:22:00,
2013-08-20 10:43:00,79.0,70.0,29.88,South,174,6.0,13.0,75,0.00,,,0.00,,2013-08-20 15:43:00,
2013-08-20 10:53:00,79.0,70.0,29.88,SW,228,10.0,17.0,74,0.00,,,0.00,,2013-08-20 15:53:00,
2013-08-20 11:15:00,80.0,71.0,29.88,SSW,210,7.0,12.0,73,0.00,,,0.00,,2013-08-20 16:15:00,
2013-08-20 11:30:00,-999.0,-99.9,29.88,South,179,7.0,13.0,73,0.00,,,0.00,,2013-08-20 16:30:00,
2013-08-20 11:42:00,81.0,71.0,29.88,SW,236,8.0,16.0,72,0.00,,,0.00,,2013-08-20 16:42:00,
2013-08-20 11:52:00,81.0,71.0,29.88,WSW,257,7.0,13.0,71,0.00,,,0.00,,2013-08-20 16:52:00,
2013-08-20 12:12:00,81.0,71.0,29.88,WSW,243,5.0,13.0,72,0.00,,,0.00,,2013-08-20 17:12:00,
2013-08-20 12:24:00,81.0,71.0,29.88,SW,224,5.0,11.0,72,0.00,,,0.00,,2013-08-20 17:24:00,
2013-08-20 12:34:00,81.0,71.0,29.88,SW,224,5.0,11.0,72,0.00,,,0.00,,2013-08-20 17:34:00,
2013-08-20 12:43:00,81.0,71.0,29.88,SW,224,5.0,11.0,72,0.00,,,0.00,,2013-08-20 17:43:00,
2013-08-20 12:52:00,82.0,71.0,29.87,South,183,7.0,13.0,70,0.00,,,0.00,,2013-08-20 17:52:00,
2013-08-20 13:12:00,82.0,71.0,29.86,SW,221,9.0,15.0,70,0.00,,,0.00,,2013-08-20 18:12:00,
2013-08-20 13:22:00,83.0,72.0,29.86,SW,224,7.0,15.0,70,0.00,,,0.00,,2013-08-20 18:22:00,
2013-08-20 13:52:00,84.0,72.0,29.86,SSW,206,9.0,16.0,68,0.00,,,0.00,,2013-08-20 18:52:00,
2013-08-20 14:11:00,84.0,72.0,29.85,South,190,9.0,17.0,67,0.00,,,0.00,,2013-08-20 19:11:00,
2013-08-20 14:21:00,84.0,73.0,29.85,WSW,238,6.0,16.0,69,0.00,,,0.00,,2013-08-20 19:21:00,
2013-08-20 14:42:00,85.0,73.0,29.85,WSW,240,7.0,13.0,67,0.00,,,0.00,,2013-08-20 19:42:00,
2013-08-20 14:52:00,86.0,74.0,29.85,SW,235,7.0,13.0,67,0.00,,,0.00,,2013-08-20 19:52:00,
2013-08-20 15:12:00,86.0,73.0,29.85,SW,228,6.0,13.0,66,0.00,,,0.00,,2013-08-20 20:12:00,
2013-08-20 15:22:00,86.0,73.0,29.84,WSW,243,6.0,14.0,65,0.00,,,0.00,,2013-08-20 20:22:00,
2013-08-20 15:42:00,87.0,74.0,29.84,SSE,162,8.0,13.0,65,0.00,,,0.00,,2013-08-20 20:42:00,
2013-08-20 15:52:00,86.0,73.0,29.84,South,175,6.0,12.0,66,0.00,,,0.00,,2013-08-20 20:52:00,
2013-08-20 16:11:00,87.0,74.0,29.83,SSE,160,5.0,13.0,65,0.00,,,0.00,,2013-08-20 21:11:00,
2013-08-20 16:22:00,87.0,74.0,29.83,SSE,153,5.0,11.0,65,0.00,,,0.00,,2013-08-20 21:22:00,
2013-08-20 16:44:00,87.0,74.0,29.83,SW,232,5.0,13.0,66,0.00,,,0.00,,2013-08-20 21:44:00,
2013-08-20 16:55:00,87.0,73.0,29.83,SSW,203,5.0,9.0,64,0.00,,,0.00,,2013-08-20 21:55:00,
2013-08-20 17:14:00,87.0,74.0,29.83,South,176,5.0,9.0,66,0.00,,,0.00,,2013-08-20 22:14:00,
2013-08-20 17:24:00,87.0,75.0,29.83,SSW,205,8.0,12.0,68,0.00,,,0.00,,2013-08-20 22:24:00,
2013-08-20 17:42:00,87.0,74.0,29.83,SSE,152,5.0,12.0,66,0.00,,,0.00,,2013-08-20 22:42:00,
2013-08-20 17:53:00,87.0,75.0,29.83,SW,232,4.0,9.0,67,0.00,,,0.00,,2013-08-20 22:53:00,
2013-08-20 18:03:00,87.0,75.0,29.83,SW,232,4.0,9.0,67,0.00,,,0.00,,2013-08-20 23:03:00,
2013-08-20 18:12:00,87.0,75.0,29.83,SW,232,4.0,9.0,67,0.00,,,0.00,,2013-08-20 23:12:00,
2013-08-20 18:22:00,87.0,75.0,29.83,SW,236,4.0,7.0,68,0.00,,,0.00,,2013-08-20 23:22:00,
2013-08-20 18:42:00,86.0,74.0,29.83,SSE,156,3.0,9.0,68,0.00,,,0.00,,2013-08-20 23:42:00,
2013-08-20 18:52:00,86.0,75.0,29.83,SSW,204,3.0,7.0,69,0.00,,,0.00,,2013-08-20 23:52:00,
2013-08-20 19:12:00,85.0,75.0,29.83,SW,225,2.0,7.0,71,0.00,,,0.00,,2013-08-21 00:12:00,
2013-08-20 19:22:00,84.0,74.0,29.83,SW,218,2.0,4.0,73,0.00,,,0.00,,2013-08-21 00:22:00,
2013-08-20 19:42:00,84.0,74.0,29.83,SSW,197,2.0,5.0,72,0.00,,,0.00,,2013-08-21 00:42:00,
2013-08-20 19:52:00,83.0,74.0,29.83,SSW,201,2.0,6.0,74,0.00,,,0.00,,2013-08-21 00:52:00,
2013-08-20 20:11:00,82.0,73.0,29.83,SW,222,2.0,6.0,75,0.00,,,0.00,,2013-08-21 01:11:00,
2013-08-20 20:22:00,81.0,73.0,29.83,South,174,3.0,6.0,76,0.00,,,0.00,,2013-08-21 01:22:00,
2013-08-20 20:42:00,80.0,72.0,29.83,SSW,208,2.0,5.0,76,0.00,,,0.00,,2013-08-21 01:42:00,
2013-08-20 20:52:00,80.0,72.0,29.84,SW,231,3.0,5.0,78,0.00,,,0.00,,2013-08-21 01:52:00,
2013-08-20 21:12:00,79.0,72.0,29.84,SSW,208,2.0,6.0,78,0.00,,,0.00,,2013-08-21 02:12:00,
2013-08-20 21:22:00,79.0,71.0,29.85,SE,141,3.0,5.0,77,0.00,,,0.00,,2013-08-21 02:22:00,
2013-08-20 21:42:00,78.0,71.0,29.85,South,187,3.0,6.0,79,0.00,,,0.00,,2013-08-21 02:42:00,
2013-08-20 21:52:00,77.0,70.0,29.85,SSW,203,3.0,7.0,80,0.00,,,0.00,,2013-08-21 02:52:00,
2013-08-20 22:12:00,77.0,71.0,29.86,South,188,3.0,7.0,82,0.00,,,0.00,,2013-08-21 03:12:00,
2013-08-20 22:23:00,77.0,71.0,29.86,South,175,2.0,7.0,82,0.00,,,0.00,,2013-08-21 03:23:00,
2013-08-20 22:44:00,76.0,70.0,29.86,SSE,166,3.0,7.0,83,0.00,,,0.00,,2013-08-21 03:44:00,
2013-08-20 22:55:00,76.0,71.0,29.86,South,186,3.0,8.0,84,0.00,,,0.00,,2013-08-21 03:55:00,
2013-08-20 23:14:00,75.0,70.0,29.86,SSE,163,4.0,6.0,84,0.00,,,0.00,,2013-08-21 04:14:00,
2013-08-20 23:24:00,75.0,70.0,29.86,SSE,167,4.0,7.0,85,0.00,,,0.00,,2013-08-21 04:24:00,
2013-08-20 23:44:00,74.0,70.0,29.87,SSE,153,4.0,7.0,86,0.00,,,0.00,,2013-08-21 04:44:00,
2013-08-20 23:54:00,73.0,69.0,29.86,SSW,192,4.0,7.0,88,0.00,,,0.00,,2013-08-21 04:54:00,